Hourly Data Report for October 04, 2017

All times are specified in Local Standard Time (LST). Add 1 hour to adjust for Daylight Saving Time where and when it is observed.

LONDON CS
ONTARIO

43°02'00.000" N
81°09'00.000" W
278.00 m
6144478
71622
WSN

Download Data

Hourly Data (October 2017)
Hourly Data Report for October 4, 2017
Temp Definition
°C
Dew Point Temp Definition
°C
Rel Hum Definition
%
Wind Dir Definition
10's deg

Wind Spd Definition
km/h
Visibility Definition
km
Stn Press Definition
kPa
Hmdx Definition


Wind Chill Definition


Weather Definition


TIME
00:00 21.7 14.1 62 LegendMM LegendMM   99.41 25   LegendNANA
01:00 21.3 14.5 65 LegendMM LegendMM   99.40 25   LegendNANA
02:00 21.2 14.6 66 LegendMM LegendMM   99.37 25   LegendNANA
03:00 21.1 14.4 66 LegendMM LegendMM   99.28 25   LegendNANA
04:00 21.3 14.6 65 LegendMM LegendMM   99.28 25   LegendNANA
05:00 21.3 14.9 67 LegendMM LegendMM   99.26 25   LegendNANA
06:00 20.6 15.3 71 LegendMM LegendMM   99.25 25   LegendNANA
07:00 19.0 16.6 86 LegendMM LegendMM   99.20     LegendNANA
08:00 20.1 16.8 82 LegendMM LegendMM   99.16 25   LegendNANA
09:00 21.1 16.8 77 LegendMM LegendMM   99.15 26   LegendNANA
10:00 23.9 17.9 69 LegendMM LegendMM   99.09 30   LegendNANA
11:00 21.6 18.4 82 LegendMM LegendMM   99.05 28   LegendNANA
12:00 22.8 19.3 81 LegendMM LegendMM   98.97 30   LegendNANA
13:00 24.0 18.4 71 LegendMM LegendMM   98.87 30   LegendNANA
14:00 23.8 18.5 72 LegendMM LegendMM   98.81 30   LegendNANA
15:00 23.8 18.5 72 LegendMM LegendMM   98.78 30   LegendNANA
16:00 23.3 18.4 74 LegendMM LegendMM   98.73 30   LegendNANA
17:00 23.2 18.4 74 LegendMM LegendMM   98.73 30   LegendNANA
18:00 22.7 18.4 77 LegendMM LegendMM   98.74 29   LegendNANA
19:00 22.1 18.1 78 LegendMM LegendMM   98.79 28   LegendNANA
20:00 19.3 17.2 88 LegendMM LegendMM   98.87     LegendNANA
21:00 17.5 15.4 88 LegendMM LegendMM   98.88     LegendNANA
22:00 16.3 14.9 92 LegendMM LegendMM   98.90     LegendNANA
23:00 15.0 12.6 86 LegendMM LegendMM   98.92     LegendNANA

Notes on Data Quality.

Legend

  • E = Estimated
  • M = Missing
  • NA = Not Available
  • ‡ = Partner data that is not subject to review by the National Climate Archives
Date modified: